SCP
0 0 0 0 0 0 0 0 0 0 0 0 0 0 0 0 0 0 0 0 0 0 0 0 0 0 0 0 0 0 0 0 0 0 0 0 0 0 0 0 0 0 0 0 0 0 0
0 0 0 0 0 0 0 0 0 0 0 0 0 0 0 0 0 0 0 0 0 0 0 0 0 0 0 0 0 0 0 0 0 0 0 0 0 0 0 0 0 0 0 0 0 0 0
0 0 0 0 0 0 0 0 0 0 0 0 0 0 0 0 0 0 0 0 0 0 0 0 0 0 0 0 0 0 0 0 0 0 0 0 0 0 0 0 0 0 0 0 0 0 0
0 0 0 0 0 0 0 0 0 0 0 0 0 0 0 0 0 0 0 0 0 0 0 0 0 0 0 0 0 0 0 0 0 0 0 0 0 0 0 0 0 0 0 0 0 0 0
0 0 0 0 0 0 0 0 0 0 0 0 0 0 0 0 0 0 0 0 0 0 0 0 0 0 0 0 0 0 0 0 0 0 0 0 0 0 0 0 0 0 0 0 0 0 0
0 0 0 0 0 0 0 0 0 0 0 0 0 0 0 0 0 0 0 0 0 0 0 0 0 0 0 0 0 0 0 0 0 0 0 0 0 0 0 0 0 0 0 0 0 0 0
0 0 0 0 0 0 0 0 0 0 0 0 0 0 0 0 0 0 0 0 0 0 0 0 0 0 0 0 0 0 0 0 0 0 0 0 0 0 0 0 0 0 0 0 0 0 0
0 0 0 0 0 0 0 0 0 0 0 0 0 0 0 0 0 0 0 0 0 0 0 0 0 0 0 0 0 0 0 0 0 0 0 0 0 0 0 0 0 0 0 0 0 0 0
0 0 0 0 0 0 0 0 0 0 0 0 0 0 0 0 0 0 0 0 0 0 0 0 0 0 0 0 0 0 0 0 0 0 0 0 0 0 0 0 0 0 0 0 0 0 0
0 0 0 0 0 0 0 0 0 0 0 0 0 0 0 0 0 0 0 0 0 0 0 0 0 0 0 0 0 0 0 0 0 0 0 0 0 0 0 0 0 0 0 0 0 0 0
0 0 0 0 0 0 0 0 0 0 0 0 0 -0 0 0 0 0 0 0 0 0 0 0 0 0 0 0 0 0 0 0 0 0 0 0 0 0 0 0 0 0 0 0 0 0 0
0 0 0 0 0 0 0 -0 -0 -0 -0 -0 -0 -0 -0 0 0 0 0 0 0 0 0 0 0 0 0 0 0 0 0 0 0 0 0 0 0 0 0 0 0 0 0 0 0 0 0
0 0 0 0 0 0 0 0 0 -0 -0 -0 -0 -0 -0 0 0 0 0 0 0 0 0 0 0 0 0 0 0 0 0 0 0 0 0 0 0 0 0 0 0 0 0 0 0 0 0
0 0 0 0 0 0 0 0 0 0 0 -0 0 0 0 0 0 0 0 0 0 0 0 0 0 0 0 0 0 0 0 0 0 0 0 0 0 0 0 0 0 0 0 0 0 0 0
0 0 0 0 0 0 0 0 0 0 0 0 0 0 0 0 0 0 0 0 0 0 0 0 0 0 0 0 0 0 0 0 0 0 0 0 0 0 0 0 0 0 0 0 0 0 0
0 0 0 0 0 -0 0 0 0 0 0 0 0 0 0 0 0 0 0 0 0 0 0 0 0 0 0 0 0 0 0 0 0 0 0 0 0 0 0 0 0 0 0 0 0 0 0
0 0 0 0 0 0 0 0 0 0 0 0 0 0 0 0 0 0 0 0 0 0 0 0 0 0 0 0 0 0 0 0 0 0 0 0 0 0 0 0 0 0 0 0 0 0 0
0 0 0 0 0 0 -0 0 0 0 0 0 0 0 0 0 0 0 0 0 0 0 0 0 0 0 0 0 0 0 0 0 0 0 0 0 0 0 0 0 0 0 0 0 0 0 0
0 0 0 0 0 0 0 0 0 0 0 0 0 0 0 0 0 0 0 0 0 0 0 0 0 0 0 0 0 0 0 0 0 0 0 0 0 0 0 0 0 0 0 0 0 0 0
0 0 0 0 0 0 0 -0 0 0 0 0 0 0 0 0 0 0 0 0 0 0 0 0 0 0 0 0 0 0 0 0 0 0 0 0 0 0 0 0 0 0 0 0 0 0 0
0 0 0 0 0 0 0 -0 0 0 0 0 0 0 0 0 0 0 0 0 0 0 0 0 0 0 0 0 0 0 0 0 0 0 0 0 0 0 0 0 0 0 0 0 0 0 0
0 0 0 0 0 0 0 0 0 0 0 0 0 0 0 0 0 0 0 0 0 0 0 0 0 0 0 0 0 0 0 0 0 0 0 0 0 0 0 0 0 0 0 0 0 0 0
0 0 0 -0 0 0 0 -0 -0 0 0 0 0 0 0 0 0 0 0 0 0 0 0 0 0 0 0 0 0 0 0 0 0 0 0 0 0 0 0 0 0 0 0 0 0 0 0
0 0 0 -0 0 0 0 0 0 0 0 0 0 0 0 0 0 0 0 0 0 0 0 0 0 0 0 0 0 0 0 0 0 0 0 0 0 0 0 0 0 0 0 0 0 0 0
0 0 0 0 0 0 0 0 -0 -0 0 0 0 0 0 0 0 0 0 0 0 0 0 0 0 0 0 0 0 0 0 0 0 0 0 0 0 0 0 0 0 0 0 0 0 0 0
0 0 0 0 -0 0 0 0 0 -0 0 0 0 0 0 0 0 0 0 0 0 0 0 0 0 0 0 0 0 0 0 0 0 0 0 0 0 0 0 0 0 0 0 0 0 0 0
0 0 0 0 0 0 0 0 0 0 -0 0 0 0 0 0 0 0 0 0 0 0 0 0 0 0 0 0 0 0 0 0 0 0 0 0 0 0 0 0 0 0 0 0 0 0 0
-0 0 0 0 0 0 0 0 0 0 0 0 0 0 0 0 0 0 0 0 0 0 0 0 0 0 0 0 0 0 0 0 0 0 0 0 0 0 0 0 0 0 0 0 0 0 0
-0 0 0 0 0 0 0 0 0 0 0 0 0 0 0 0 0 0 0 0 0 0 0 0 0 0 0 0 0 0 0 0 0 0 0 0 0 0 0 0 0 0 0 0 0 0 0
Wind_Speed_500mb
41 40 41 39 38 42 50 45 42 43 39 36 34 33 31 34 31 30 28 24 24 22 21 17 15 13 11 12 15 16 13 13 10 9 11 12 12 7 6 4 2 7 7 20 17 29 20
40 44 45 45 43 45 46 55 54 45 45 41 38 36 34 33 32 32 28 27 25 23 21 18 15 13 13 10 18 16 16 16 14 13 8 11 7 7 8 5 3 1 12 28 33 42 18
51 51 49 50 52 48 47 57 56 59 48 47 40 38 35 34 35 33 29 29 28 25 21 18 15 15 19 23 21 15 16 14 13 15 15 17 16 11 3 7 8 7 10 16 20 18 10
58 62 59 57 54 61 64 62 61 57 56 49 43 39 38 39 37 33 30 28 27 25 22 18 15 15 14 22 29 22 18 13 13 15 15 8 12 11 5 5 6 3 4 8 5 10 3
56 59 58 53 50 57 57 54 48 54 58 52 44 48 47 44 41 37 30 25 24 22 19 16 13 14 12 15 22 21 20 11 15 13 9 7 8 4 6 4 6 5 6 10 5 2 5
55 55 54 47 45 47 57 56 40 48 51 46 51 53 58 59 51 44 34 25 18 17 15 15 19 9 21 16 21 23 25 21 11 9 6 7 5 4 3 6 9 7 7 6 6 5 6
58 58 53 45 43 41 51 46 36 29 41 47 54 63 66 65 59 46 32 25 18 13 27 21 13 6 18 24 20 21 27 22 15 8 8 10 7 13 17 16 2 6 5 9 9 5 10
55 58 59 45 43 36 45 41 34 27 13 11 15 12 38 31 48 38 33 21 16 7 13 30 28 28 20 26 13 23 25 17 13 11 10 7 12 10 11 9 6 4 2 10 11 6 6
57 60 55 54 42 41 45 43 37 24 29 22 20 17 13 18 21 30 38 42 25 11 6 12 40 29 24 33 11 32 30 16 9 10 16 12 2 11 6 3 5 3 7 4 7 13 4
52 55 58 52 35 35 25 39 32 27 19 20 12 25 25 21 20 18 29 40 30 21 6 10 15 15 26 22 8 27 34 15 7 17 14 9 10 9 7 5 9 4 3 2 4 9 4
54 51 53 46 25 26 19 22 7 13 15 26 26 23 28 19 11 21 16 23 29 27 7 8 12 17 25 15 28 11 25 11 10 12 12 9 9 8 6 4 6 6 3 3 4 6 9
57 53 48 49 37 34 41 44 34 35 38 40 42 52 50 22 26 24 13 35 27 6 14 9 11 11 12 7 7 13 9 8 6 7 7 6 4 6 5 7 6 4 5 5 4 4 3
53 59 50 42 45 46 46 44 35 34 47 60 62 63 38 15 17 27 24 27 7 9 3 11 10 12 10 11 9 10 12 11 12 10 8 6 5 4 5 8 2 10 8 5 6 2 10
56 54 60 52 46 46 43 57 54 53 62 64 62 41 29 32 30 26 30 7 14 6 8 7 13 15 11 12 8 13 14 11 9 4 7 11 7 5 3 4 11 5 10 9 12 4 8
55 54 51 54 52 50 46 42 48 50 43 35 29 19 30 32 32 30 22 13 8 8 8 13 14 9 7 7 9 9 14 12 13 17 12 9 4 5 10 5 3 5 4 6 8 6 5
59 52 51 59 60 50 44 40 41 45 43 30 20 17 23 22 39 36 9 7 7 3 4 7 7 6 9 10 9 12 17 2 10 5 5 5 9 4 5 5 8 4 5 8 5 2 7
61 59 45 53 57 68 37 34 35 29 22 12 13 10 10 20 35 19 11 7 6 4 4 7 4 7 5 9 10 9 14 4 5 7 10 7 8 5 6 9 12 4 2 1 5 6 9
65 59 56 46 57 54 41 46 36 24 14 20 13 5 12 25 11 3 7 10 8 5 6 4 5 5 6 9 7 10 6 6 16 12 12 5 9 6 6 1 5 5 10 10 8 10 4
68 62 56 54 47 47 52 51 41 25 21 28 10 12 14 33 11 11 4 0 4 5 9 4 5 5 1 6 4 2 9 6 20 7 8 8 5 8 2 3 2 6 9 6 6 4 10
66 65 57 54 51 43 45 52 44 29 22 35 7 4 12 30 18 11 5 7 7 5 3 9 8 11 7 5 6 7 7 3 10 5 12 7 5 9 11 9 9 11 20 20 10 5 7
68 63 60 53 47 44 44 53 36 36 29 41 12 5 4 6 13 9 6 9 10 9 6 8 4 10 12 8 3 4 6 8 5 13 6 7 9 4 6 10 4 12 13 22 33 23 13
71 58 58 51 44 39 36 43 32 38 34 45 8 5 4 3 7 13 15 6 12 6 11 7 9 13 8 11 14 15 13 9 7 8 6 3 5 6 7 5 9 10 19 20 32 27 23
67 56 50 48 46 35 28 38 25 48 49 38 37 11 4 7 4 9 11 8 15 17 12 8 12 10 11 9 20 17 16 19 20 14 8 10 9 5 8 3 1 12 18 24 10 7 20
46 49 44 45 40 37 28 36 27 22 56 29 34 24 8 6 5 8 6 14 14 15 11 11 18 9 11 39 35 28 32 22 16 7 14 11 8 6 6 5 2 12 4 7 14 10 10
43 45 43 41 37 37 32 27 38 31 44 55 28 24 14 4 7 9 10 8 8 29 5 12 7 13 43 20 6 7 6 6 7 4 2 7 8 2 7 5 11 2 8 11 12 11 12
47 44 40 37 36 33 34 24 28 31 22 64 40 35 16 7 5 6 7 13 7 7 6 7 21 40 24 4 5 9 9 9 5 7 6 3 7 6 4 7 11 12 7 13 7 7 6
44 38 36 37 37 32 31 29 24 33 31 35 66 42 23 7 4 5 2 8 8 8 6 12 14 9 13 4 4 5 6 6 8 12 8 7 4 9 7 5 14 10 10 14 9 10 12
47 39 34 33 35 30 28 28 23 30 31 43 64 48 31 12 5 7 4 2 6 12 7 16 10 4 4 5 6 6 6 9 6 7 10 11 11 7 6 5 16 18 12 12 7 9 6
44 40 34 32 35 28 27 27 26 31 35 46 53 44 32 11 6 12 9 5 4 15 14 34 1 9 16 5 0 5 5 4 8 6 2 4 11 8 14 10 6 41 3 16 9 8 8
Wind_Direction_500mb
315 325 318 316 299 291 298 294 290 285 278 273 271 270 271 276 276 275 278 274 277 276 279 277 272 259 239 238 242 239 217 225 236 211 192 167 190 209 211 307 195 210 276 289 292 299 290
312 312 323 318 311 306 300 290 285 280 277 270 268 266 267 274 280 276 271 271 272 274 273 271 264 247 224 242 251 242 233 226 225 201 185 186 197 218 270 253 175 247 303 288 285 275 259
305 304 306 313 309 304 305 297 285 277 271 267 262 263 264 270 270 283 274 271 272 270 268 264 254 238 234 244 250 238 227 221 210 208 186 206 219 207 313 301 318 322 327 307 264 254 198
305 303 297 297 310 306 303 298 281 270 263 260 258 255 257 265 276 281 279 274 272 268 262 256 244 231 247 232 238 233 221 211 201 190 202 184 181 184 199 311 302 278 158 315 303 113 184
310 308 308 302 297 310 308 302 295 254 260 250 247 252 256 259 266 271 274 275 274 266 256 244 225 218 253 219 219 215 197 193 167 159 170 178 172 172 146 116 349 263 231 212 286 224 124
330 316 307 309 303 313 312 320 306 260 262 245 241 247 252 249 255 255 258 258 270 265 242 226 197 227 227 212 198 195 188 186 164 156 139 162 153 82 14 114 222 181 225 305 273 5 204
333 334 321 305 297 314 311 318 318 259 244 238 241 245 238 242 239 239 247 247 253 250 217 212 214 211 164 174 178 177 175 172 160 176 171 193 117 210 209 211 165 141 173 238 272 338 338
323 327 333 311 294 301 300 298 299 301 305 235 227 232 225 244 236 235 226 205 215 196 277 242 231 214 200 185 155 190 179 177 172 192 152 63 220 204 151 129 131 97 301 276 282 67 359
313 318 324 320 310 296 289 271 288 299 283 298 303 306 318 273 268 238 218 218 210 216 264 240 218 211 194 193 192 192 187 184 181 192 179 162 174 142 140 165 161 205 205 264 241 335 309
318 307 316 323 315 314 286 257 269 264 265 269 313 325 323 297 302 243 227 219 210 193 226 221 203 202 185 170 196 177 181 173 202 200 174 229 180 173 174 197 126 195 123 98 20 49 258
327 315 305 316 291 327 283 260 342 339 303 317 312 303 300 325 254 225 223 204 189 158 231 124 146 156 157 178 132 169 174 166 180 179 117 225 154 133 132 150 102 193 115 134 96 69 48
324 327 303 303 292 285 294 300 311 316 320 316 313 301 314 287 256 237 196 179 153 171 232 152 133 157 132 160 129 118 148 148 136 112 76 111 83 83 128 104 105 120 71 73 73 78 322
311 321 323 291 292 280 276 293 293 307 310 306 304 301 293 228 246 236 212 187 194 207 346 180 177 161 163 156 148 156 163 176 164 122 186 121 128 86 85 107 173 69 72 1 334 351 221
312 304 315 316 297 282 282 270 282 291 293 294 295 294 254 220 225 216 212 218 229 208 203 185 126 128 170 150 180 183 146 183 224 123 136 153 267 137 38 144 175 155 141 156 215 240 257
317 308 301 310 314 274 280 271 281 288 291 299 304 287 264 214 209 221 195 224 198 201 168 141 125 127 189 162 133 141 186 193 187 192 167 128 127 91 62 31 53 182 157 143 95 32 44
312 312 294 297 305 297 263 267 268 273 285 294 289 282 251 227 207 207 216 245 227 252 117 86 123 138 159 179 143 183 180 164 162 164 110 173 103 155 129 61 36 118 160 65 7 178 267
315 313 304 289 297 312 270 264 256 267 274 254 257 261 242 206 215 186 214 258 173 54 78 105 124 122 137 161 182 202 186 14 128 111 84 122 93 138 101 201 172 146 67 143 126 168 165
316 313 307 296 285 295 301 287 246 256 239 213 229 236 216 195 209 195 239 185 172 152 42 114 122 98 133 147 162 224 140 87 128 133 142 158 134 145 200 55 306 183 191 151 140 245 207
314 313 306 297 295 280 300 311 221 241 222 193 228 229 190 193 214 220 170 47 105 137 177 148 158 111 360 124 148 175 87 29 103 68 150 179 152 130 146 91 18 227 193 177 144 102 205
310 310 309 301 293 282 295 310 213 230 202 205 256 231 185 201 235 197 194 173 141 217 176 148 135 97 71 62 50 166 124 90 89 106 103 111 112 162 181 187 141 194 208 204 154 144 199
304 305 307 302 297 285 280 305 223 207 197 198 228 248 199 192 218 237 213 174 150 158 179 216 119 149 152 144 117 203 116 115 108 156 83 104 174 107 263 239 234 198 191 200 210 213 193
295 296 299 304 297 292 274 295 225 200 190 205 214 201 193 254 186 190 224 226 166 141 153 229 143 167 151 159 183 196 135 164 171 142 129 82 148 93 305 345 185 246 229 212 222 236 253
284 284 292 298 297 285 260 277 295 219 188 203 215 229 180 256 187 157 211 186 198 142 207 214 170 125 167 188 122 108 114 164 159 148 149 147 130 99 268 229 112 304 227 190 193 233 214
278 279 283 289 294 282 274 267 300 233 197 202 209 202 181 263 158 196 207 177 196 187 157 163 162 117 152 142 115 92 76 77 121 115 137 142 120 114 228 36 339 242 234 174 196 222 220
285 283 281 282 288 287 271 270 264 278 214 206 204 200 182 229 212 237 242 212 245 197 144 127 98 141 149 128 98 71 5 37 329 26 144 138 136 151 154 216 290 310 224 165 159 276 206
297 279 274 278 280 281 270 268 261 257 275 206 209 216 197 136 257 242 192 193 174 143 105 101 122 154 160 125 100 158 187 188 232 321 328 214 100 134 83 147 223 242 247 192 136 305 235
308 283 271 272 270 274 268 261 252 247 270 258 211 209 197 178 230 316 106 175 139 124 100 119 145 150 177 104 104 156 226 180 164 168 174 148 137 201 182 221 284 236 190 157 95 234 164
306 289 273 269 267 265 257 258 256 239 258 211 196 202 203 187 168 221 200 155 132 134 132 145 113 165 99 162 149 221 126 219 97 184 178 158 147 192 141 188 264 146 114 165 191 132 165
293 287 267 263 261 258 246 252 263 242 254 220 192 186 197 170 181 221 243 196 162 167 144 168 104 166 170 102 94 109 93 96 161 209 180 233 183 185 185 215 213 182 156 160 165 164 183
Wind_Speed_850mb
41 40 41 39 38 42 50 45 42 43 39 36 34 33 31 34 31 30 28 24 24 22 21 17 15 13 11 12 15 16 13 13 10 9 11 12 12 7 6 4 2 7 7 20 17 29 20
40 44 45 45 43 45 46 55 54 45 45 41 38 36 34 33 32 32 28 27 25 23 21 18 15 13 13 10 18 16 16 16 14 13 8 11 7 7 8 5 3 1 12 28 33 42 18
51 51 49 50 52 48 47 57 56 59 48 47 40 38 35 34 35 33 29 29 28 25 21 18 15 15 19 23 21 15 16 14 13 15 15 17 16 11 3 7 8 7 10 16 20 18 10
58 62 59 57 54 61 64 62 61 57 56 49 43 39 38 39 37 33 30 28 27 25 22 18 15 15 14 22 29 22 18 13 13 15 15 8 12 11 5 5 6 3 4 8 5 10 3
56 59 58 53 50 57 57 54 48 54 58 52 44 48 47 44 41 37 30 25 24 22 19 16 13 14 12 15 22 21 20 11 15 13 9 7 8 4 6 4 6 5 6 10 5 2 5
55 55 54 47 45 47 57 56 40 48 51 46 51 53 58 59 51 44 34 25 18 17 15 15 19 9 21 16 21 23 25 21 11 9 6 7 5 4 3 6 9 7 7 6 6 5 6
58 58 53 45 43 41 51 46 36 29 41 47 54 63 66 65 59 46 32 25 18 13 27 21 13 6 18 24 20 21 27 22 15 8 8 10 7 13 17 16 2 6 5 9 9 5 10
55 58 59 45 43 36 45 41 34 27 13 11 15 12 38 31 48 38 33 21 16 7 13 30 28 28 20 26 13 23 25 17 13 11 10 7 12 10 11 9 6 4 2 10 11 6 6
57 60 55 54 42 41 45 43 37 24 29 22 20 17 13 18 21 30 38 42 25 11 6 12 40 29 24 33 11 32 30 16 9 10 16 12 2 11 6 3 5 3 7 4 7 13 4
52 55 58 52 35 35 25 39 32 27 19 20 12 25 25 21 20 18 29 40 30 21 6 10 15 15 26 22 8 27 34 15 7 17 14 9 10 9 7 5 9 4 3 2 4 9 4
54 51 53 46 25 26 19 22 7 13 15 26 26 23 28 19 11 21 16 23 29 27 7 8 12 17 25 15 28 11 25 11 10 12 12 9 9 8 6 4 6 6 3 3 4 6 9
57 53 48 49 37 34 41 44 34 35 38 40 42 52 50 22 26 24 13 35 27 6 14 9 11 11 12 7 7 13 9 8 6 7 7 6 4 6 5 7 6 4 5 5 4 4 3
53 59 50 42 45 46 46 44 35 34 47 60 62 63 38 15 17 27 24 27 7 9 3 11 10 12 10 11 9 10 12 11 12 10 8 6 5 4 5 8 2 10 8 5 6 2 10
56 54 60 52 46 46 43 57 54 53 62 64 62 41 29 32 30 26 30 7 14 6 8 7 13 15 11 12 8 13 14 11 9 4 7 11 7 5 3 4 11 5 10 9 12 4 8
55 54 51 54 52 50 46 42 48 50 43 35 29 19 30 32 32 30 22 13 8 8 8 13 14 9 7 7 9 9 14 12 13 17 12 9 4 5 10 5 3 5 4 6 8 6 5
59 52 51 59 60 50 44 40 41 45 43 30 20 17 23 22 39 36 9 7 7 3 4 7 7 6 9 10 9 12 17 2 10 5 5 5 9 4 5 5 8 4 5 8 5 2 7
61 59 45 53 57 68 37 34 35 29 22 12 13 10 10 20 35 19 11 7 6 4 4 7 4 7 5 9 10 9 14 4 5 7 10 7 8 5 6 9 12 4 2 1 5 6 9
65 59 56 46 57 54 41 46 36 24 14 20 13 5 12 25 11 3 7 10 8 5 6 4 5 5 6 9 7 10 6 6 16 12 12 5 9 6 6 1 5 5 10 10 8 10 4
68 62 56 54 47 47 52 51 41 25 21 28 10 12 14 33 11 11 4 0 4 5 9 4 5 5 1 6 4 2 9 6 20 7 8 8 5 8 2 3 2 6 9 6 6 4 10
66 65 57 54 51 43 45 52 44 29 22 35 7 4 12 30 18 11 5 7 7 5 3 9 8 11 7 5 6 7 7 3 10 5 12 7 5 9 11 9 9 11 20 20 10 5 7
68 63 60 53 47 44 44 53 36 36 29 41 12 5 4 6 13 9 6 9 10 9 6 8 4 10 12 8 3 4 6 8 5 13 6 7 9 4 6 10 4 12 13 22 33 23 13
71 58 58 51 44 39 36 43 32 38 34 45 8 5 4 3 7 13 15 6 12 6 11 7 9 13 8 11 14 15 13 9 7 8 6 3 5 6 7 5 9 10 19 20 32 27 23
67 56 50 48 46 35 28 38 25 48 49 38 37 11 4 7 4 9 11 8 15 17 12 8 12 10 11 9 20 17 16 19 20 14 8 10 9 5 8 3 1 12 18 24 10 7 20
46 49 44 45 40 37 28 36 27 22 56 29 34 24 8 6 5 8 6 14 14 15 11 11 18 9 11 39 35 28 32 22 16 7 14 11 8 6 6 5 2 12 4 7 14 10 10
43 45 43 41 37 37 32 27 38 31 44 55 28 24 14 4 7 9 10 8 8 29 5 12 7 13 43 20 6 7 6 6 7 4 2 7 8 2 7 5 11 2 8 11 12 11 12
47 44 40 37 36 33 34 24 28 31 22 64 40 35 16 7 5 6 7 13 7 7 6 7 21 40 24 4 5 9 9 9 5 7 6 3 7 6 4 7 11 12 7 13 7 7 6
44 38 36 37 37 32 31 29 24 33 31 35 66 42 23 7 4 5 2 8 8 8 6 12 14 9 13 4 4 5 6 6 8 12 8 7 4 9 7 5 14 10 10 14 9 10 12
47 39 34 33 35 30 28 28 23 30 31 43 64 48 31 12 5 7 4 2 6 12 7 16 10 4 4 5 6 6 6 9 6 7 10 11 11 7 6 5 16 18 12 12 7 9 6
44 40 34 32 35 28 27 27 26 31 35 46 53 44 32 11 6 12 9 5 4 15 14 34 1 9 16 5 0 5 5 4 8 6 2 4 11 8 14 10 6 41 3 16 9 8 8
Wind_Direction_850mb
315 325 318 316 299 291 298 294 290 285 278 273 271 270 271 276 276 275 278 274 277 276 279 277 272 259 239 238 242 239 217 225 236 211 192 167 190 209 211 307 195 210 276 289 292 299 290
312 312 323 318 311 306 300 290 285 280 277 270 268 266 267 274 280 276 271 271 272 274 273 271 264 247 224 242 251 242 233 226 225 201 185 186 197 218 270 253 175 247 303 288 285 275 259
305 304 306 313 309 304 305 297 285 277 271 267 262 263 264 270 270 283 274 271 272 270 268 264 254 238 234 244 250 238 227 221 210 208 186 206 219 207 313 301 318 322 327 307 264 254 198
305 303 297 297 310 306 303 298 281 270 263 260 258 255 257 265 276 281 279 274 272 268 262 256 244 231 247 232 238 233 221 211 201 190 202 184 181 184 199 311 302 278 158 315 303 113 184
310 308 308 302 297 310 308 302 295 254 260 250 247 252 256 259 266 271 274 275 274 266 256 244 225 218 253 219 219 215 197 193 167 159 170 178 172 172 146 116 349 263 231 212 286 224 124
330 316 307 309 303 313 312 320 306 260 262 245 241 247 252 249 255 255 258 258 270 265 242 226 197 227 227 212 198 195 188 186 164 156 139 162 153 82 14 114 222 181 225 305 273 5 204
333 334 321 305 297 314 311 318 318 259 244 238 241 245 238 242 239 239 247 247 253 250 217 212 214 211 164 174 178 177 175 172 160 176 171 193 117 210 209 211 165 141 173 238 272 338 338
323 327 333 311 294 301 300 298 299 301 305 235 227 232 225 244 236 235 226 205 215 196 277 242 231 214 200 185 155 190 179 177 172 192 152 63 220 204 151 129 131 97 301 276 282 67 359
313 318 324 320 310 296 289 271 288 299 283 298 303 306 318 273 268 238 218 218 210 216 264 240 218 211 194 193 192 192 187 184 181 192 179 162 174 142 140 165 161 205 205 264 241 335 309
318 307 316 323 315 314 286 257 269 264 265 269 313 325 323 297 302 243 227 219 210 193 226 221 203 202 185 170 196 177 181 173 202 200 174 229 180 173 174 197 126 195 123 98 20 49 258
327 315 305 316 291 327 283 260 342 339 303 317 312 303 300 325 254 225 223 204 189 158 231 124 146 156 157 178 132 169 174 166 180 179 117 225 154 133 132 150 102 193 115 134 96 69 48
324 327 303 303 292 285 294 300 311 316 320 316 313 301 314 287 256 237 196 179 153 171 232 152 133 157 132 160 129 118 148 148 136 112 76 111 83 83 128 104 105 120 71 73 73 78 322
311 321 323 291 292 280 276 293 293 307 310 306 304 301 293 228 246 236 212 187 194 207 346 180 177 161 163 156 148 156 163 176 164 122 186 121 128 86 85 107 173 69 72 1 334 351 221
312 304 315 316 297 282 282 270 282 291 293 294 295 294 254 220 225 216 212 218 229 208 203 185 126 128 170 150 180 183 146 183 224 123 136 153 267 137 38 144 175 155 141 156 215 240 257
317 308 301 310 314 274 280 271 281 288 291 299 304 287 264 214 209 221 195 224 198 201 168 141 125 127 189 162 133 141 186 193 187 192 167 128 127 91 62 31 53 182 157 143 95 32 44
312 312 294 297 305 297 263 267 268 273 285 294 289 282 251 227 207 207 216 245 227 252 117 86 123 138 159 179 143 183 180 164 162 164 110 173 103 155 129 61 36 118 160 65 7 178 267
315 313 304 289 297 312 270 264 256 267 274 254 257 261 242 206 215 186 214 258 173 54 78 105 124 122 137 161 182 202 186 14 128 111 84 122 93 138 101 201 172 146 67 143 126 168 165
316 313 307 296 285 295 301 287 246 256 239 213 229 236 216 195 209 195 239 185 172 152 42 114 122 98 133 147 162 224 140 87 128 133 142 158 134 145 200 55 306 183 191 151 140 245 207
314 313 306 297 295 280 300 311 221 241 222 193 228 229 190 193 214 220 170 47 105 137 177 148 158 111 360 124 148 175 87 29 103 68 150 179 152 130 146 91 18 227 193 177 144 102 205
310 310 309 301 293 282 295 310 213 230 202 205 256 231 185 201 235 197 194 173 141 217 176 148 135 97 71 62 50 166 124 90 89 106 103 111 112 162 181 187 141 194 208 204 154 144 199
304 305 307 302 297 285 280 305 223 207 197 198 228 248 199 192 218 237 213 174 150 158 179 216 119 149 152 144 117 203 116 115 108 156 83 104 174 107 263 239 234 198 191 200 210 213 193
295 296 299 304 297 292 274 295 225 200 190 205 214 201 193 254 186 190 224 226 166 141 153 229 143 167 151 159 183 196 135 164 171 142 129 82 148 93 305 345 185 246 229 212 222 236 253
284 284 292 298 297 285 260 277 295 219 188 203 215 229 180 256 187 157 211 186 198 142 207 214 170 125 167 188 122 108 114 164 159 148 149 147 130 99 268 229 112 304 227 190 193 233 214
278 279 283 289 294 282 274 267 300 233 197 202 209 202 181 263 158 196 207 177 196 187 157 163 162 117 152 142 115 92 76 77 121 115 137 142 120 114 228 36 339 242 234 174 196 222 220
285 283 281 282 288 287 271 270 264 278 214 206 204 200 182 229 212 237 242 212 245 197 144 127 98 141 149 128 98 71 5 37 329 26 144 138 136 151 154 216 290 310 224 165 159 276 206
297 279 274 278 280 281 270 268 261 257 275 206 209 216 197 136 257 242 192 193 174 143 105 101 122 154 160 125 100 158 187 188 232 321 328 214 100 134 83 147 223 242 247 192 136 305 235
308 283 271 272 270 274 268 261 252 247 270 258 211 209 197 178 230 316 106 175 139 124 100 119 145 150 177 104 104 156 226 180 164 168 174 148 137 201 182 221 284 236 190 157 95 234 164
306 289 273 269 267 265 257 258 256 239 258 211 196 202 203 187 168 221 200 155 132 134 132 145 113 165 99 162 149 221 126 219 97 184 178 158 147 192 141 188 264 146 114 165 191 132 165
293 287 267 263 261 258 246 252 263 242 254 220 192 186 197 170 181 221 243 196 162 167 144 168 104 166 170 102 94 109 93 96 161 209 180 233 183 185 185 215 213 182 156 160 165 164 183